www.pogodaiklimat.ru

Погода и климат >> Архив погоды >> Италия >> Анкона


ПОГОДА в Анконе

  • Прогноз погоды в Анконе
  • Монитор погоды в Анконе

АРХИВ ПОГОДЫ в Анконе

Время (UTC), дата Ветер
(напр.,м/с)
 
Видим.   Явления Облачность Т
(С)
Тd
(С)
f
(%)
Тe
(С)
Тes
(С)
Комфортность P
(гПа)
Po
(гПа)
Тmin
(С)
Tmax
(С)
R
(мм)
R24
(мм)
S
(см)
16 12.06 В 4 н/о н/о +27.5 +15.8 49 +31 +31 душно 1003.5 991.7
17 12.06 В 1 н/о н/о +27.7 +18.9 59 +33 +33 очень
душно
1003.6 991.8
18 12.06 ЮВ 1 н/о н/о +25.7 +18.3 64 +30 +30 душно 1004.1 992.3 +29.9
19 12.06 Ю 1 н/о н/о +24.0 +18.6 72 +29 +29 душно 1004.4 992.5
20 12.06 З 1 н/о н/о +23.7 +18.3 72 +28 +28 душно 1005.1 993.2
21 12.06 З 2 н/о н/о +23.3 +16.5 66 +28 +28 душно 1005.7 993.7
22 12.06 З 2 н/о н/о +22.9 +17.7 73 +28 +28 душно 1006.2 994.2
23 12.06 З 2 н/о н/о +23.4 +16.8 66 +28 +28 душно 1006.5 994.5
00 13.06 З 3 н/о н/о +22.8 +15.8 65 +27 +27 душно 1006.7 994.7
01 13.06 СЗ 2 н/о н/о +22.8 +16.3 67 +27 +27 душно 1006.9 994.9
02 13.06 СЗ 3 н/о н/о +22.3 +18.4 79 +28 +28 душно 1006.9 994.9
03 13.06 З 3 н/о н/о +21.6 +18.1 80 +26 +26 душно 1007.2 995.2
04 13.06 З 2 н/о н/о +21.3 +16.4 74 +25 +25 комфорт 1007.9 995.8
05 13.06 З 2 н/о н/о +21.4 +14.5 65 +24 +24 комфорт 1008.6 996.5
06 13.06 З 4 н/о н/о +22.0 +12.2 54 +24 +24 комфорт 1009.4 997.4 +21.1 1
07 13.06 З 3 н/о н/о +23.1 +11.4 48 +25 +25 комфорт 1009.8 997.8
08 13.06 СЗ 3 н/о н/о +24.0 +11.6 46 +26 +26 жарко 1010.1 998.1
09 13.06 С 4 н/о н/о +24.1 +9.2 39 +25 +25 комфорт 1010.4 998.4
10 13.06 С 4 н/о н/о +24.6 +14.0 52 +27 +27 жарко 1010.9 998.9
11 13.06 СВ 2 н/о н/о +25.7 +13.8 48 +28 +28 жарко 1010.9 998.9
12 13.06 СВ 2 н/о н/о +25.1 +14.8 53 +28 +28 жарко 1010.7 998.8
13 13.06 В 2 н/о н/о +24.3 +14.9 56 +27 +27 жарко 1010.6 998.6
14 13.06 В 5 н/о н/о +24.4 +14.7 55 +27 +27 жарко 1010.8 998.8
15 13.06 В 6 н/о н/о +24.7 +12.3 46 +26 +26 жарко 1010.8 998.8
16 13.06 ЮВ 4 н/о н/о +24.6 +9.3 38 +25 +25 комфорт 1010.7 998.7
17 13.06 Ю 4 н/о н/о +25.3 +11.4 42 +27 +27 жарко 1010.7 998.8
18 13.06 Ю 3 н/о н/о +24.4 +8.7 37 +25 +25 комфорт 1010.9 998.9 +26.4
19 13.06 Ю 5 н/о н/о +23.9 +9.1 39 +25 +25 комфорт 1010.9 998.9
20 13.06 Ю 5 н/о н/о +23.8 +10.1 42 +25 +25 комфорт 1011.5 999.5
21 13.06 Ю 6 н/о н/о +22.6 +11.6 50 +25 +25 комфорт 1011.5 999.5
22 13.06 Ю 5 н/о н/о +22.8 +13.8 57 +26 +26 жарко 1011.8 999.8
23 13.06 Ю 5 н/о н/о +22.7 +15.0 62 +27 +27 душно 1011.8 999.7
00 14.06 Ю 5 н/о н/о +22.6 +15.4 64 +27 +27 душно 1011.3 999.3
01 14.06 Ю 3 н/о н/о +22.2 +15.5 66 +26 +26 душно 1011.6 999.5
02 14.06 Ю 3 н/о н/о +21.9 +15.9 69 +26 +26 душно 1011.2 999.1
03 14.06 ЮЗ 1 н/о н/о +22.0 +15.7 67 +26 +26 душно 1011.6 999.5
04 14.06 СВ 2 н/о н/о +21.3 +15.3 69 +24 +24 комфорт 1012.5 1000.4
05 14.06 С 1 н/о н/о +22.6 +17.7 74 +28 +28 душно 1012.8 1000.7
06 14.06 СЗ 2 н/о н/о +22.6 +16.8 70 +27 +27 душно 1013.1 1001.0 +21.2 102
07 14.06 З 2 н/о н/о +23.3 +17.2 69 +29 +29 душно 1013.6 1001.5
08 14.06 СЗ 3 н/о н/о +23.8 +18.4 72 +28 +28 душно 1013.5 1001.5
09 14.06 С 2 н/о н/о +25.0 +18.6 68 +30 +30 душно 1013.4 1001.4
10 14.06 СВ 4 н/о н/о +25.7 +17.8 62 +30 +30 душно 1013.4 1001.4
11 14.06 СВ 2 н/о н/о +24.7 +18.8 70 +30 +30 очень
душно
1013.2 1001.2
12 14.06 В 4 н/о н/о +24.4 +17.1 64 +28 +28 душно 1012.8 1000.8
13 14.06 В 4 н/о н/о +27.4 +10.6 35 +28 +28 жарко 1012.1 1000.2
14 14.06 ЮВ 8 н/о н/о +26.7 +10.8 37 +28 +28 жарко 1011.6 999.7
15 14.06 ЮВ 3 н/о н/о +28.8 +9.5 30 +29 +29 жарко 1011.0 999.2
16 14.06 ЮВ 4 н/о н/о +28.7 +4.9 22 +27 +27 жарко 1010.1 998.3
17 14.06 Ю 4 н/о н/о +27.3 +5.6 25 +26 +26 жарко 1010.4 998.5
18 14.06 В 3 н/о н/о +27.5 +8.9 31 +28 +28 жарко 1009.9 998.1 +29.4
19 14.06 Ю 2 н/о н/о +26.7 +10.8 37 +28 +28 жарко 1009.8 997.9
20 14.06 Ю 7 н/о н/о +26.5 +10.6 37 +27 +27 жарко 1009.5 997.6
21 14.06 Ю 7 н/о н/о +25.9 +12.0 42 +27 +27 жарко 1009.2 997.3
22 14.06 Ю 5 н/о н/о +24.8 +12.0 45 +26 +26 жарко 1009.5 997.6
23 14.06 ЮЗ 3 н/о н/о +24.3 +14.0 53 +27 +27 жарко 1009.6 997.6
00 15.06 ЮЗ 1 н/о н/о +24.8 +13.6 50 +27 +27 жарко 1009.1 997.2
01 15.06 В 3 н/о н/о +26.2 +13.9 47 +28 +28 жарко 1008.6 996.7
02 15.06 Ю 3 н/о н/о +24.3 +13.7 52 +27 +27 жарко 1008.3 996.4
03 15.06 СЗ 2 н/о н/о +24.2 +14.2 54 +27 +27 жарко 1008.7 996.7
04 15.06 Ю 2 н/о н/о +23.8 +15.5 60 +27 +27 жарко 1008.7 996.7
05 15.06 В 4 н/о н/о +26.3 +15.0 50 +29 +29 жарко 1007.4 995.6
06 15.06 Ю 3 н/о н/о +24.0 +16.2 62 +27 +27 жарко 1008.2 996.2 +23.0 8
07 15.06 Ю 3 н/о н/о +25.6 +16.7 58 +29 +29 душно 1008.2 996.3
08 15.06 ЮЗ 2 н/о н/о +26.0 +16.8 57 +30 +30 душно 1007.8 995.9
09 15.06 СЗ 2 н/о н/о +28.5 +19.4 58 +34 +34 очень
душно
1008.3 996.5
10 15.06 СВ 2 н/о н/о +28.7 +18.1 53 +33 +33 очень
душно
1008.3 996.5
11 15.06 Ю 2 н/о н/о +29.0 +17.5 50 +33 +33 очень
душно
1008.2 996.4
12 15.06 С 3 н/о н/о +29.9 +17.0 46 +34 +34 очень
душно
1007.9 996.2
13 15.06 С 2 н/о н/о +30.2 +16.2 43 +33 +33 душно 1007.6 995.9
14 15.06 С 3 н/о н/о +29.0 +15.5 44 +32 +32 душно 1007.7 995.9
15 15.06 С 2 н/о н/о +28.3 +18.9 57 +34 +34 очень
душно
1007.5 995.7
16 15.06 С 2 н/о н/о +27.9 +15.2 46 +31 +31 душно 1007.0 995.2
17 15.06 С 1 н/о н/о +27.0 +16.2 52 +30 +30 душно 1006.8 995.0
18 15.06 СВ 2 н/о н/о +26.3 +15.0 50 +29 +29 жарко 1006.7 994.9 +30.8
19 15.06 СВ 1 н/о н/о +24.9 +15.7 57 +28 +28 жарко 1006.8 994.9
20 15.06 СВ 2 н/о н/о +24.3 +15.4 58 +27 +27 жарко 1007.2 995.3
21 15.06 С 1 н/о н/о +24.8 +15.4 56 +28 +28 жарко 1007.3 995.4
22 15.06 СЗ 2 н/о н/о +25.1 +14.2 51 +28 +28 жарко 1007.8 995.9
23 15.06 ЮЗ 2 н/о н/о +24.1 +14.7 56 +27 +27 жарко 1007.9 995.9
00 16.06 З 4 н/о н/о +23.7 +15.1 59 +27 +27 жарко 1008.2 996.2
01 16.06 З 2 н/о н/о +23.7 +13.2 52 +26 +26 жарко 1008.1 996.1
02 16.06 З 3 н/о н/о +22.9 +11.9 50 +25 +25 комфорт 1007.9 995.9
03 16.06 З 3 н/о н/о +23.0 +11.4 48 +25 +25 комфорт 1007.9 995.9
04 16.06 З 4 н/о н/о +23.2 +10.6 45 +25 +25 комфорт 1007.9 995.9
05 16.06 З 4 н/о н/о +23.5 +10.5 44 +25 +25 комфорт 1008.2 996.2
06 16.06 З 4 н/о н/о +24.3 +11.6 45 +26 +26 жарко 1008.3 996.4 +22.7 705
07 16.06 СЗ 2 н/о н/о +25.4 +12.6 45 +27 +27 жарко 1008.5 996.6
08 16.06 СЗ 5 н/о н/о +25.6 +12.4 44 +27 +27 жарко 1008.7 996.8
09 16.06 С 5 н/о н/о +25.6 +16.4 57 +29 +29 душно 1008.9 997.0
10 16.06 СВ 2 н/о н/о +26.3 +17.3 58 +30 +30 душно 1009.0 997.1
11 16.06 С 4 н/о н/о +26.3 +18.4 62 +31 +31 душно 1008.8 996.9
12 16.06 С 2 н/о н/о +25.9 +17.2 59 +30 +30 душно 1008.3 996.4
13 16.06 СЗ 3 н/о н/о +26.7 +18.5 61 +32 +32 очень
душно
1007.9 996.1
14 16.06 С 4 н/о н/о +26.2 +16.7 56 +30 +30 душно 1007.8 995.9
15 16.06 С 3 н/о н/о +26.2 +16.4 55 +30 +30 душно 1007.3 995.4
16 16.06 СЗ 4 н/о н/о +25.8 +16.0 55 +29 +29 душно 1007.1 995.2
17 16.06 С 2 н/о н/о +26.4 +14.8 49 +29 +29 жарко 1007.1 995.3
18 16.06 СЗ 2 н/о н/о +26.5 +13.5 45 +29 +29 жарко 1007.0 995.2 +27.6
19 16.06 ЮЗ 2 н/о н/о +24.7 +10.9 42 +26 +26 жарко 1006.7 994.8
20 16.06 ЮЗ 2 н/о н/о +24.9 +10.7 41 +26 +26 жарко 1007.5 995.6
21 16.06 Ю 2 н/о н/о +24.8 +11.7 44 +26 +26 жарко 1007.9 996.0
22 16.06 Ю 2 н/о н/о +24.5 +11.8 45 +26 +26 жарко 1008.1 996.2
23 16.06 Ю 2 н/о н/о +24.1 +12.0 47 +26 +26 жарко 1008.2 996.2
00 17.06 ЮЗ 1 н/о н/о +24.2 +12.5 48 +26 +26 жарко 1007.8 995.9
01 17.06 ЮЗ 2 н/о н/о +23.8 +12.7 50 +26 +26 жарко 1007.7 995.7
02 17.06 ЮЗ 2 н/о н/о +23.7 +12.6 50 +26 +26 жарко 1007.8 995.8
03 17.06 З 3 н/о н/о +23.4 +12.9 52 +26 +26 жарко 1007.7 995.7
04 17.06 З 2 н/о н/о +23.2 +13.3 54 +26 +26 жарко 1008.4 996.4
05 17.06 ЮЗ 1 н/о н/о +22.8 +14.0 58 +26 +26 жарко 1008.7 996.7
06 17.06 З 2 н/о н/о +23.1 +16.8 68 +28 +28 душно 1009.0 997.0 +22.6 503
07 17.06 З 3 н/о н/о +24.3 +17.0 64 +28 +28 душно 1009.2 997.3
08 17.06 СЗ 3 н/о н/о +25.8 +18.7 65 +31 +31 очень
душно
1009.3 997.4
09 17.06 С 2 н/о н/о +26.1 +17.4 59 +30 +30 душно 1009.3 997.4
10 17.06 СВ 2 н/о н/о +27.1 +19.9 65 +33 +33 очень
душно
1009.1 997.3
11 17.06 СВ 2 н/о н/о +27.5 +18.4 58 +32 +32 очень
душно
1009.0 997.2
12 17.06 С 2 н/о н/о +27.3 +19.3 62 +33 +33 очень
душно
1008.9 997.1
13 17.06 С 4 н/о н/о +27.2 +19.0 61 +32 +32 очень
душно
1008.6 996.8
14 17.06 СЗ 2 н/о н/о +24.4 +16.8 63 +28 +28 душно 1008.9 996.9
15 17.06 С 2 н/о н/о +24.2 +18.3 70 +29 +29 душно 1009.1 997.1
16 17.06 С 2 н/о н/о +24.4 +16.6 62 +28 +28 душно 1008.8 996.8
17 17.06 З 3 н/о н/о +24.5 +16.7 62 +28 +28 душно 1009.1 997.1
18 17.06 З 2 н/о н/о +24.1 +16.0 61 +27 +27 жарко 1008.9 996.9 +28.8
19 17.06 СЗ 4 н/о н/о +22.8 +17.6 72 +28 +28 душно 1008.9 996.9
20 17.06 СЗ 2 н/о н/о +22.5 +18.2 77 +28 +28 душно 1009.2 997.2
21 17.06 СЗ 2 н/о н/о +22.4 +17.5 74 +27 +27 душно 1009.5 997.5
22 17.06 З 2 н/о н/о +21.9 +17.8 78 +27 +27 душно 1009.8 997.7
23 17.06 З 3 н/о н/о +21.4 +17.5 78 +25 +25 комфорт 1009.9 997.8
00 18.06 З 4 н/о н/о +21.3 +17.0 76 +25 +25 комфорт 1009.8 997.7
01 18.06 СЗ 4 н/о н/о +21.3 +17.0 76 +25 +25 комфорт 1009.6 997.5
02 18.06 З 2 н/о н/о +21.0 +16.3 75 +25 +25 комфорт 1009.2 997.1
03 18.06 СЗ 2 н/о н/о +21.0 +16.9 77 +25 +25 комфорт 1009.2 997.1
04 18.06 З 2 н/о н/о +20.7 +16.2 75 +25 +25 комфорт 1009.3 997.2
05 18.06 З 3 н/о н/о +21.6 +16.7 74 +26 +26 душно 1009.8 997.7
06 18.06 З 3 н/о н/о +22.4 +17.0 72 +27 +27 душно 1009.9 997.9 +20.7 1
07 18.06 СЗ 4 н/о н/о +23.3 +18.5 74 +29 +29 душно 1010.3 998.3
08 18.06 СЗ 4 н/о н/о +23.9 +18.7 73 +29 +29 душно 1010.3 998.3
09 18.06 С 4 н/о н/о +25.3 +18.9 68 +30 +30 душно 1010.1 998.2
10 18.06 С 4 н/о н/о +24.7 +17.6 65 +29 +29 душно 1010.3 998.3
11 18.06 С 2 н/о н/о +26.4 +18.7 63 +31 +31 душно 1009.9 998.0
12 18.06 С 2 н/о н/о +26.1 +16.3 55 +30 +30 душно 1009.6 997.7
13 18.06 СВ 4 н/о н/о +26.6 +15.9 52 +30 +30 душно 1009.2 997.3
14 18.06 СВ 4 н/о н/о +26.8 +17.5 57 +31 +31 душно 1008.7 996.9
15 18.06 СВ 1 н/о н/о +26.5 +16.7 55 +30 +30 душно 1008.3 996.4
16 18.06 З 2 н/о н/о +25.5 +17.1 60 +29 +29 душно 1007.9 996.0
17 18.06 В 3 н/о н/о +25.4 +15.3 54 +28 +28 жарко 1008.1 996.2
18 18.06 ЮВ 2 н/о н/о +25.4 +12.9 46 +27 +27 жарко 1008.5 996.6 +28.1
19 18.06 Ю 5 н/о н/о +23.7 +15.4 60 +27 +27 жарко 1008.4 996.4
20 18.06 Ю 4 н/о н/о +22.8 +15.1 62 +27 +27 душно 1008.7 996.7
21 18.06 Ю 4 н/о н/о +22.7 +15.0 62 +27 +27 душно 1008.6 996.6
22 18.06 Ю 5 н/о н/о +23.0 +15.2 61 +27 +27 душно 1008.5 996.5
23 18.06 Ю 4 н/о н/о +22.8 +14.8 61 +27 +27 душно 1008.4 996.4
00 19.06 Ю 3 н/о н/о +22.6 +14.9 62 +26 +26 жарко 1008.3 996.3
01 19.06 штиль 0 н/о н/о +22.2 +14.5 62 +26 +26 душно 1008.2 996.2
02 19.06 З 1 н/о н/о +22.5 +15.5 65 +26 +26 жарко 1007.9 995.9
03 19.06 З 1 н/о н/о +21.9 +15.6 67 +26 +26 душно 1007.8 995.8
04 19.06 ЮЗ 2 н/о н/о +21.7 +15.9 70 +25 +25 комфорт 1008.0 996.0
05 19.06 ЮЗ 1 н/о н/о +22.4 +17.5 74 +27 +27 душно 1008.0 996.0
06 19.06 ЮЗ 1 н/о н/о +23.7 +17.4 68 +28 +28 душно 1008.0 996.0 +21.5 301
07 19.06 СЗ 1 н/о н/о +24.8 +18.4 68 +29 +29 душно 1008.3 996.4
08 19.06 СВ 2 н/о н/о +26.5 +18.3 61 +31 +31 душно 1008.2 996.3
09 19.06 СВ 1 н/о н/о +27.4 +18.1 57 +32 +32 очень
душно
1008.1 996.3
10 19.06 СВ 3 н/о н/о +27.3 +18.8 60 +32 +32 очень
душно
1007.8 996.0
11 19.06 Ю 3 н/о н/о +27.5 +19.2 61 +33 +33 очень
душно
1007.6 995.8
12 19.06 В 3 н/о н/о +27.0 +20.5 68 +34 +34 очень
душно
1007.4 995.6
13 19.06 В 4 н/о н/о +26.7 +19.8 66 +33 +33 очень
душно
1007.1 995.3
14 19.06 ЮВ 3 н/о н/о +27.7 +19.4 61 +33 +33 очень
душно
1006.8 995.0

 

Местоположение метеостанции Анкона (Италия): широта 43.62 долгота 13.53 высота над уровнем моря 141 м.

В архиве по умолчанию представлена погода в Анконе за последнюю неделю. Архивные данные за месяц целиком и за предыдущие месяцы, начиная с января 2011 года, Вы можете получить, выбрав интересующий диапазон дат из раскрывающегося списка и нажав кнопку "Ввод!".


*Определитесь, кто Вы:
робот инопланетянин человек

Внимание! Время в таблицах - всемирное. Для получения местного времени необходимо прибавить поправку, которая равна 1 ч.

Смотрите также архив погоды в соседних городах и на ближайших метеорологических станциях:

Погода в Лорето (Италия) (22 км)
Погода во Фронтоне (Италия) (65 км)
Погода в Римини (Италия) (86 км)
Погода в Червии (Италия) (119 км)
Погода в Мали-Лошине (Хорватия) (127 км)
Погода в Пунта Марина (Италия) (135 км)
Погода на Монте Терминилло (Италия) (135 км)
Погода в Ареццо (Италия) (136 км)
Погода в Пуле (Хорватия) (146 км)
Погода в Задаре (Хорватия) (147 км)

Пояснения к столбцам:

Ветер - указаны скорость ветра в м/с - средняя за 10 мин, порывы в срок и между сроками (в фигурных скобках) и направление, откуда дует ветер: С - северный, СВ - северо-восточный, В - восточный, ЮВ - юго-восточный, Ю - южный, ЮЗ - юго-западный, З - западный, СЗ - северо-западный.
Видимость - горизонтальная дальность видимости в метрах или километрах. При видимости от 1 до 10 км при отсутствии осадков обычно наблюдается дымка, при ухудшении видимости до 1 км и менее - туман. В сухую погоду видимость может ухудшаться дымом, пылью или мглою.
Явления - указаны атмосферные явления, наблюдавшиеся в срок или в последний час перед сроком; фигурными скобками обозначены явления, наблюдавшиеся между сроками (за 1-3 часа до срока); квадратными скобками обозначены град или гололедные отложения с указанием их диаметра в мм.
Облачность - указаны через наклонную черту общая и нижняя облачность в баллах и высота нижней границы облаков в метрах; квадратными скобками обозначены формы облаков: Ci - перистые, Cs - перисто-слоистые, Cc - перисто-кучевые, Ac - высококучевые, As - высокослоистые, Sc - слоисто-кучевые, Ns - слоисто-дождевые, Cu - кучевые, Cb - кучево-дождевые. Подробнее классификацию облаков см. в Атласе облаков (PDF).
T - Температура воздуха - температура, измеренная на высоте 2 м над землей.
Td - Температура точки росы - температура, при понижении до которой содержащийся в воздухе водяной пар достигнет насыщения.
f - Относительная влажность воздуха - влажноcть воздуха, измеренная на высоте 2 м над землей.
Te - Эффективная температура - температура, которую ощущает одетый по сезону человек в тени. Характеристика душности погоды. При расчете учитывается влияние влажности воздуха и скорости ветра на теплоощущения человека.
Tes - Эффективная температура на солнце - температура, которую ощущает человек, с поправкой на солнечный нагрев. Характеристика знойности погоды. Зависит от высоты солнца над горизонтом, облачности и скорости ветра. Ночью, в пасмурную погоду, а также при ветре 12 м/с и более поправка равна нулю.
P - Атмосферное давление - приведенное к уровню моря атмосферное давление.
Po - Атмосферное давление - измеренное на уровне метеостанции атмосферное давление.
Tmin - Минимальная температура - минимум температуры воздуха на высоте 2 м над землей.
Tmax - Максимальная температура - максимум температуры воздуха на высоте 2 м над землей.
R - Количество осадков - Количество выпавших осадков за период времени, мм. При наведении курсора мыши на число - период времени, за который выпало указанное количество осадков.
R24 - Количество осадков - Количество выпавших осадков за 24 часа, мм.
S - Снежный покров - Высота снежного покрова, см. При наведении курсора мыши на число - состояние снежного покрова и степень покрытия местности в баллах.